This is the latest recevied weather packets stored in our database for station/object K1NOT-WX. If no packets are shown the sender has not sent any weather packets the latest 10 day(s).
| Time | Temp. | Humidity | Pressure | Rain* | Wind** | Luminosity | Snow |
|---|---|---|---|---|---|---|---|
| 1777942633 | 25.56° C | 42% | 1000.7 hPa | 0 mm | - | - | - |
| 1777941733 | 25° C | 41% | 1001 hPa | 0 mm | - | - | - |
| 1777940833 | 25.56° C | 40% | 1000.7 hPa | 0 mm | - | - | - |
| 1777939932 | 25.56° C | 40% | 1001 hPa | 0 mm | - | - | - |
| 1777939032 | 25.56° C | 40% | 1001.4 hPa | 0 mm | - | - | - |
| 1777938133 | 25.56° C | 41% | 1001 hPa | 0 mm | - | - | - |
| 1777937233 | 25.56° C | 40% | 1001 hPa | 0 mm | - | - | - |
| 1777936332 | 25° C | 39% | 1001 hPa | 0 mm | - | - | - |
| 1777935433 | 25.56° C | 40% | 1001.4 hPa | 0 mm | - | - | - |
| 1777934532 | 25.56° C | 40% | 1001.4 hPa | 0 mm | - | - | - |
| 1777933632 | 25° C | 38% | 1001.7 hPa | 0 mm | - | - | - |
| 1777932732 | 25.56° C | 38% | 1001.7 hPa | 0 mm | - | - | - |
| 1777931832 | 25° C | 38% | 1002 hPa | 0 mm | - | - | - |
| 1777930932 | 25° C | 45% | 1001.7 hPa | 0 mm | - | - | - |
| 1777930032 | 24.44° C | 48% | 1002 hPa | 0 mm | - | - | - |
| 1777929132 | 25° C | 46% | 1002 hPa | 0 mm | - | - | - |
| 1777928232 | 24.44° C | 45% | 1002 hPa | 0 mm | - | - | - |
| 1777927332 | 25° C | 44% | 1002 hPa | 0 mm | - | - | - |
| 1777926432 | 25° C | 37% | 1002 hPa | 0 mm | - | - | - |
| 1777925532 | 24.44° C | 41% | 1002 hPa | 0 mm | - | - | - |
| 1777924632 | 24.44° C | 39% | 1002 hPa | 0 mm | - | - | - |
| 1777923732 | 25° C | 35% | 1002 hPa | 0 mm | - | - | - |
| 1777922832 | 25° C | 35% | 1002.4 hPa | 0 mm | - | - | - |
| 1777921932 | 24.44° C | 36% | 1002.4 hPa | 0 mm | - | - | - |
| 1777921032 | 26.11° C | 37% | 1002.4 hPa | 0 mm | - | - | - |
* Rain latest hour (hover to see other rain measurements)
** Current wind speed in m/s (hover to see current wind gust speed)